Home   Weather   Landau in der Pfalz   Past weeks

Flag for Germany Past Weather in Landau in der Pfalz, Rhineland-Palatinate, Germany — Yesterday and Last 2 Weeks

Now
26 °F

Low clouds.


Feels Like: 26 °F
Forecast: 20 / 36 °F
Wind: No wind

Location: Ramstein

Current Time: Dec 5, 2016 at 3:37:06 am

Latest Report: Dec 5, 2016 at 2:58 am


Visibility: N/A

Pressure: 30.36 "Hg

Humidity: 98%

Dew Point: 26 °F

Location of Landau in der PfalzLocation

Past Weather in Landau in der Pfalz — Graph

°F

Landau in der Pfalz Temperature Yesterday

Maximum temperature yesterday: 37 °F (at 1:58 pm)
Minimum temperature yesterday: 16 °F (at 3:58 am)
Average temperature yesterday: 24 °F

High & Low Weather Summary for the Past Weeks

 TemperatureHumidityPressure
High59 °F (Nov 21, 6:58 am)100% (Nov 21, 3:58 pm)30.62 "Hg (Nov 21, 3:58 pm)
Low14 °F (Nov 30, 7:58 am)48% (Nov 21, 2:58 am)29.55 "Hg (Nov 20, 9:58 am)
Average38 °F87%30.14 "Hg
* Reported Nov 20 1:58 am — Dec 5 1:58 am, Landau in der Pfalz, Weather by CustomWeather, © 2016

Note: Actual official high and low records may vary slightly from our data, if they occured in-between our weather recording intervals... More about our weather records

Advertising

Landau in der Pfalz Weather History for the Previous 24 Hours

Scroll right to see more
 ConditionsComfort  
Time TempWeatherWind HumidityBarometerVisibility
1:58 am
Mon, Dec 5
25 °FLow clouds.No wind96%30.36 "HgN/A
12:58 am19 °FPassing clouds.No wind96%30.37 "HgN/A
11:58 pm
Sun, Dec 4
18 °FClear.No wind97%30.38 "HgN/A
10:58 pm19 °FClear.No wind100%30.38 "HgN/A
9:58 pm17 °FIce fog.No wind95%30.39 "Hg6 mi
8:58 pm21 °FClear.No wind100%30.39 "HgN/A
7:58 pm22 °FClear.No wind94%30.39 "HgN/A
6:58 pm20 °FClear.No wind93%30.37 "HgN/A
5:58 pm27 °FClear.3 mph88%30.37 "HgN/A
4:58 pm27 °FClear.5 mph86%30.36 "HgN/A
3:58 pm34 °FSunny.8 mph69%30.34 "HgN/A
2:58 pm36 °FSunny.9 mph65%30.33 "HgN/A
1:58 pm37 °FSunny.13 mph60%30.33 "HgN/A
12:58 pm35 °FSunny.8 mph67%30.33 "HgN/A
11:58 am33 °FSunny.9 mph78%30.35 "HgN/A
10:58 am30 °FSunny.8 mph86%30.36 "HgN/A
9:58 am25 °FSunny.No wind93%30.37 "HgN/A
8:58 am17 °FSunny.3 mph93%30.37 "HgN/A
7:58 am18 °FClear.3 mph98%30.36 "HgN/A
6:58 am18 °FClear.5 mph97%30.35 "HgN/A
5:58 am18 °FClear.No wind93%30.34 "HgN/A
4:58 am18 °FClear.No wind93%30.34 "HgN/A
3:58 am16 °FClear.No wind94%30.32 "HgN/A
Weather by CustomWeather, © 2016

See weather overviewHow to use our weather pages